Weather History for Ogallala, NE

Change the Weather History Date:

Sunday, October 30, 2011

  Actual Average Record
Temperature  
Mean Temperature 44 °F -  
Max Temperature 59 °F 57 °F 88 °F (1968)
Min Temperature 28 °F 29 °F 11 °F (1991)
Degree Days  
Heating Degree Days 22    
Moisture  
Dew Point 27 °F    
Average Humidity 58    
Maximum Humidity 93    
Minimum Humidity 25    
Precipitation  
Precipitation 0.00 in - - ()
Sea Level Pressure  
Sea Level Pressure 30.13 in    
Wind  
Wind Speed 9 mph (WNW)    
Max Wind Speed 18 mph    
Max Gust Speed 28 mph    
Visibility 10 miles    
Events      
Averages and records for this station are not official NWS values.
T = Trace of Precipitation, MM = Missing Value Source: NWS Daily Summary

Daily Weather History Graph

Daily Weather History Graph

Search for Another Location

Airport:

Trip Planner

Search our weather history database for the weather conditions in past years. The results will help you decide how hot, cold, wet, or windy it might be!

Date:

Astronomy

Oct. 30, 2011 Rise Set
Actual Time 7:15 AM MDT 5:45 PM MDT
Civil Twilight 6:47 AM MDT 6:13 PM MDT
Nautical Twilight 6:14 AM MDT 6:46 PM MDT
Astronomical Twilight 5:42 AM MDT 7:18 PM MDT
Moon 11:38 AM MDT (10/30) 9:14 PM MDT (10/30)
Length of Visible Light 11h 26m
Length of Day
10h 29m
Waxing Crescent, 20% of the Moon is Illuminated
Oct 30
Waxing Crescent
Nov 2
First Quarter
Nov 10
Full
Nov 18
Last Quarter
Nov 24
New

Hourly Weather History & Observations

Time (MDT) Temp. Windchill Dew Point Humidity Pressure Visibility Wind Dir Wind Speed Gust Speed Precip Events Conditions
12:15 AM 46.4 °F 39.8 °F 28.4 °F 50% 30.07 in 10.0 mi North 16.1 mph - N/A   Scattered Clouds
12:35 AM 46.4 °F 40.1 °F 30.2 °F 53% 30.09 in 10.0 mi North 15.0 mph - N/A   Mostly Cloudy
12:55 AM 44.6 °F 38.8 °F 30.2 °F 57% 30.10 in 10.0 mi NNW 11.5 mph - N/A   Mostly Cloudy
1:15 AM 44.6 °F 41.4 °F 30.2 °F 57% 30.10 in 10.0 mi NNW 5.8 mph 10.4 mph N/A   Mostly Cloudy
1:35 AM 41.0 °F 39.0 °F 30.2 °F 65% 30.10 in 10.0 mi SW 3.5 mph - N/A   Scattered Clouds
1:55 AM 41.0 °F - 28.4 °F 61% 30.11 in 10.0 mi Calm Calm - N/A   Clear
2:15 AM 35.6 °F - 28.4 °F 75% 30.12 in 10.0 mi Calm Calm - N/A   Clear
2:55 AM 32.0 °F 27.5 °F 26.6 °F 80% 30.11 in 10.0 mi West 4.6 mph - N/A   Clear
3:15 AM 30.2 °F 25.4 °F 26.6 °F 86% 30.11 in 10.0 mi NW 4.6 mph - N/A   Clear
3:35 AM 30.2 °F - 26.6 °F 86% 30.11 in 10.0 mi Calm Calm - N/A   Clear
3:55 AM 30.2 °F 25.4 °F 26.6 °F 86% 30.12 in 10.0 mi WSW 4.6 mph - N/A   Clear
4:15 AM 30.2 °F 23.4 °F 26.6 °F 86% 30.12 in 10.0 mi West 6.9 mph - N/A   Clear
4:35 AM 30.2 °F 24.3 °F 26.6 °F 86% 30.12 in 10.0 mi West 5.8 mph - N/A   Clear
4:55 AM 28.4 °F - 24.8 °F 86% 30.13 in 10.0 mi Calm Calm - N/A   Clear
5:15 AM 28.4 °F 24.6 °F 24.8 °F 86% 30.14 in 10.0 mi West 3.5 mph - N/A   Clear
5:35 AM 30.2 °F 23.4 °F 28.4 °F 93% 30.14 in 10.0 mi WSW 6.9 mph - N/A   Clear
6:15 AM 32.0 °F 28.7 °F 28.4 °F 87% 30.14 in 10.0 mi West 3.5 mph - N/A   Clear
6:35 AM 32.0 °F 26.4 °F 28.4 °F 87% 30.14 in 10.0 mi West 5.8 mph - N/A   Clear
6:55 AM 33.8 °F 29.6 °F 28.4 °F 81% 30.15 in 10.0 mi West 4.6 mph - N/A   Clear
7:15 AM 32.0 °F 24.8 °F 28.4 °F 87% 30.15 in 10.0 mi WSW 8.1 mph - N/A   Clear
7:35 AM 32.0 °F 27.5 °F 28.4 °F 87% 30.15 in 10.0 mi West 4.6 mph - N/A   Clear
7:55 AM 32.0 °F 27.5 °F 28.4 °F 87% 30.15 in 10.0 mi West 4.6 mph - N/A   Clear
8:15 AM 32.0 °F 27.5 °F 30.2 °F 93% 30.16 in 10.0 mi West 4.6 mph - N/A   Clear
8:35 AM 35.6 °F 30.7 °F 30.2 °F 81% 30.17 in 10.0 mi WSW 5.8 mph - N/A   Clear
8:55 AM 37.4 °F 33.8 °F 32.0 °F 81% 30.17 in 10.0 mi WNW 4.6 mph - N/A   Clear
9:15 AM 44.6 °F 38.8 °F 30.2 °F 57% 30.18 in 10.0 mi NW 11.5 mph - N/A   Clear
9:35 AM 46.4 °F 41.1 °F 30.2 °F 53% 30.18 in 10.0 mi NW 11.5 mph - N/A   Clear
9:55 AM 48.2 °F - 28.4 °F 46% 30.18 in 10.0 mi NW 11.5 mph - N/A   Clear
10:15 AM 50.0 °F - 28.4 °F 43% 30.18 in 10.0 mi WNW 11.5 mph - N/A   Clear
10:35 AM 51.8 °F - 24.8 °F 35% 30.18 in 10.0 mi NW 13.8 mph 18.4 mph N/A   Clear
10:55 AM 51.8 °F - 23.0 °F 33% 30.18 in 10.0 mi WNW 11.5 mph 26.5 mph N/A   Clear
11:15 AM 51.8 °F - 23.0 °F 33% 30.18 in 10.0 mi NW 13.8 mph 17.3 mph N/A   Clear
11:35 AM 53.6 °F - 24.8 °F 33% 30.17 in 10.0 mi WNW 12.7 mph - N/A   Clear
11:55 AM 53.6 °F - 26.6 °F 35% 30.16 in 10.0 mi West 8.1 mph 18.4 mph N/A   Clear
12:15 PM 53.6 °F - 26.6 °F 35% 30.15 in 10.0 mi West 11.5 mph 18.4 mph N/A   Clear
12:35 PM 55.4 °F - 26.6 °F 33% 30.15 in 10.0 mi WNW 15.0 mph 19.6 mph N/A   Clear
12:55 PM 55.4 °F - 26.6 °F 33% 30.14 in 10.0 mi West 18.4 mph 27.6 mph N/A   Clear
1:15 PM 57.2 °F - 26.6 °F 31% 30.13 in 10.0 mi West 16.1 mph 23.0 mph N/A   Clear
1:35 PM 55.4 °F - 26.6 °F 33% 30.12 in 10.0 mi West 10.4 mph 23.0 mph N/A   Clear
1:55 PM 57.2 °F - 26.6 °F 31% 30.11 in 10.0 mi West 12.7 mph 23.0 mph N/A   Clear
2:15 PM 55.4 °F - 26.6 °F 33% 30.11 in 10.0 mi WNW 16.1 mph 19.6 mph N/A   Clear
2:35 PM 59.0 °F - 28.4 °F 31% 30.10 in 10.0 mi WNW 15.0 mph 20.7 mph N/A   Clear
2:55 PM 59.0 °F - 26.6 °F 29% 30.09 in 10.0 mi NW 16.1 mph 21.9 mph N/A   Clear
3:15 PM 57.2 °F - 28.4 °F 33% 30.09 in 10.0 mi WNW 12.7 mph 20.7 mph N/A   Clear
3:35 PM 59.0 °F - 23.0 °F 25% 30.09 in 10.0 mi WNW 17.3 mph 23.0 mph N/A   Clear
3:55 PM 59.0 °F - 24.8 °F 27% 30.09 in 10.0 mi NNW 12.7 mph 17.3 mph N/A   Clear
4:15 PM 57.2 °F - 23.0 °F 27% 30.09 in 10.0 mi NW 13.8 mph 18.4 mph N/A   Clear
4:35 PM 57.2 °F - 24.8 °F 29% 30.08 in 10.0 mi NW 8.1 mph 16.1 mph N/A   Clear
5:15 PM 53.6 °F - 24.8 °F 33% 30.08 in 10.0 mi WNW 10.4 mph - N/A   Clear
5:35 PM 50.0 °F - 26.6 °F 40% 30.08 in 10.0 mi WNW 5.8 mph - N/A   Clear
5:55 PM 46.4 °F - 26.6 °F 46% 30.09 in 10.0 mi Calm Calm - N/A   Clear
6:15 PM 41.0 °F 37.1 °F 26.6 °F 57% 30.09 in 10.0 mi NW 5.8 mph - N/A   Clear
6:35 PM 41.0 °F 38.0 °F 26.6 °F 57% 30.09 in 10.0 mi NNW 4.6 mph - N/A   Clear
6:55 PM 39.2 °F 35.9 °F 26.6 °F 61% 30.10 in 10.0 mi West 4.6 mph - N/A   Clear
7:15 PM 41.0 °F - 26.6 °F 57% 30.11 in 10.0 mi Calm Calm - N/A   Clear
7:35 PM 37.4 °F 34.9 °F 26.6 °F 65% 30.11 in 10.0 mi WNW 3.5 mph - N/A   Clear
8:15 PM 33.8 °F 27.7 °F 26.6 °F 75% 30.11 in 10.0 mi West 6.9 mph - N/A   Clear
8:35 PM 33.8 °F 27.7 °F 26.6 °F 75% 30.11 in 10.0 mi West 6.9 mph - N/A   Clear
8:55 PM 33.8 °F 27.7 °F 26.6 °F 75% 30.11 in 10.0 mi West 6.9 mph - N/A   Clear
9:15 PM 33.8 °F 28.6 °F 26.6 °F 75% 30.11 in 10.0 mi West 5.8 mph - N/A   Clear
9:35 PM 33.8 °F 27.7 °F 26.6 °F 75% 30.12 in 10.0 mi West 6.9 mph - N/A   Clear
9:55 PM 32.0 °F 28.7 °F 26.6 °F 80% 30.12 in 10.0 mi West 3.5 mph - N/A   Clear
10:15 PM 32.0 °F 27.5 °F 26.6 °F 80% 30.12 in 10.0 mi WSW 4.6 mph - N/A   Clear
10:35 PM 32.0 °F 28.7 °F 26.6 °F 80% 30.11 in 10.0 mi West 3.5 mph - N/A   Clear
10:55 PM 30.2 °F 25.4 °F 24.8 °F 80% 30.11 in 10.0 mi West 4.6 mph - N/A   Clear
11:15 PM 32.0 °F 28.7 °F 26.6 °F 80% 30.09 in 10.0 mi West 3.5 mph - N/A   Clear
11:35 PM 30.2 °F 26.7 °F 26.6 °F 86% 30.09 in 10.0 mi WSW 3.5 mph - N/A   Clear
11:55 PM 28.4 °F 23.3 °F 24.8 °F 86% 30.09 in 10.0 mi West 4.6 mph - N/A   Clear